When you browse on this site, cookies collect data to enhance your experience and personalize the content and advertising you see.
Visit our Privacy Policy to learn more. By continuing to use the site, you agree to this use of cookies and data.
  • In Hungary
  • List of Countries
  • For 7 days
  • Water Temperature
  • Satellite Maps
  • Weather Map
  • News
  • Weather Widgets
  • user-avatar
    Login

    Hourly Weather Wisniew

    Today, 16 January, Wednesday

    Time Temperature Precipitation Wind Pressure Humidity
    00:00 -2°C° 1.2 mm 5 mps 733 mmHg 96%
    01:00 -2°C° 0 mm 6 mps 732 mmHg 96%
    02:00 -2°C° 0.2 mm 7 mps 733 mmHg 94%
    03:00 -1°C° 0.2 mm 8 mps 734 mmHg 92%
    04:00 -1°C° 0.2 mm 9 mps 734 mmHg 90%
    05:00 -2°C° 0 mm 8 mps 735 mmHg 89%
    06:00 -2°C° 0 mm 7 mps 736 mmHg 88%
    07:00 -2°C° 0 mm 5 mps 738 mmHg 88%
    08:00 -2°C° 0 mm 4 mps 738 mmHg 89%
    09:00 -1°C° 0 mm 3 mps 739 mmHg 90%
    10:00 -1°C° 0 mm 2 mps 740 mmHg 91%
    11:00 -1°C° 0 mm 2 mps 740 mmHg 93%
    12:00 -1°C° 0 mm 2 mps 740 mmHg 95%
    13:00 +1°C° 0 mm 2 mps 740 mmHg 98%
    14:00 0°C° 0.1 mm 3 mps 740 mmHg 98%
    15:00 0°C° 0.1 mm 3 mps 740 mmHg 98%
    16:00 0°C° 0.1 mm 3 mps 740 mmHg 98%
    17:00 0°C° 0.1 mm 3 mps 740 mmHg 98%
    18:00 0°C° 0.1 mm 4 mps 740 mmHg 98%
    19:00 0°C° 0.1 mm 5 mps 740 mmHg 98%
    20:00 0°C° 0 mm 5 mps 740 mmHg 98%
    21:00 0°C° 0 mm 5 mps 740 mmHg 97%
    22:00 0°C° 0 mm 5 mps 740 mmHg 97%
    23:00 -1°C° 0 mm 5 mps 739 mmHg 96%

    Tomorrow, 17 January, Thursday

    Time Temperature Precipitation Wind Pressure Humidity
    00:00 -1°C° 0 mm 5 mps 739 mmHg 94%
    01:00 -1°C° 0 mm 5 mps 739 mmHg 93%
    02:00 -1°C° 0 mm 5 mps 738 mmHg 92%
    03:00 -2°C° 0 mm 6 mps 738 mmHg 92%
    04:00 -3°C° 0 mm 6 mps 737 mmHg 91%
    05:00 -3°C° 0 mm 6 mps 737 mmHg 89%
    06:00 -2°C° 0 mm 6 mps 736 mmHg 87%
    07:00 -2°C° 0 mm 7 mps 736 mmHg 85%
    08:00 -2°C° 0 mm 7 mps 736 mmHg 83%
    09:00 -2°C° 0 mm 7 mps 736 mmHg 81%
    10:00 -1°C° 0 mm 7 mps 736 mmHg 79%
    11:00 -1°C° 0 mm 7 mps 736 mmHg 81%
    12:00 -1°C° 0 mm 7 mps 736 mmHg 83%
    13:00 0°C° 0 mm 7 mps 736 mmHg 84%
    14:00 0°C° 0 mm 7 mps 736 mmHg 86%
    15:00 -1°C° 0 mm 7 mps 736 mmHg 87%
    16:00 -1°C° 0 mm 6 mps 736 mmHg 89%
    17:00 -1°C° 0 mm 6 mps 737 mmHg 89%
    18:00 -1°C° 0 mm 6 mps 737 mmHg 89%
    19:00 -1°C° 0 mm 6 mps 737 mmHg 89%
    20:00 -1°C° 0 mm 6 mps 737 mmHg 90%
    21:00 -1°C° 0 mm 6 mps 737 mmHg 90%
    22:00 0°C° 0 mm 5 mps 737 mmHg 90%
    23:00 -1°C° 0.3 mm 6 mps 737 mmHg 91%

    Day after tomorrow, 18 January, Friday

    Time Temperature Precipitation Wind Pressure Humidity
    00:00 -1°C° 0.3 mm 6 mps 737 mmHg 91%
    01:00 -1°C° 0.3 mm 6 mps 737 mmHg 91%
    02:00 -1°C° 0 mm 6 mps 737 mmHg 90%
    03:00 -1°C° 0 mm 7 mps 737 mmHg 88%
    04:00 -1°C° 0 mm 8 mps 737 mmHg 87%
    05:00 -1°C° 0 mm 7 mps 737 mmHg 87%
    06:00 -2°C° 0 mm 7 mps 737 mmHg 87%
    07:00 -2°C° 0 mm 6 mps 738 mmHg 87%
    08:00 -2°C° 0 mm 7 mps 738 mmHg 84%
    09:00 -2°C° 0 mm 8 mps 739 mmHg 80%
    10:00 -4°C° 0 mm 8 mps 740 mmHg 77%
    11:00 -2°C° 0.1 mm 8 mps 740 mmHg 80%
    12:00 -2°C° 0.1 mm 8 mps 741 mmHg 83%
    13:00 -2°C° 0.1 mm 8 mps 741 mmHg 86%
    14:00 -3°C° 0 mm 7 mps 743 mmHg 84%
    15:00 -4°C° 0 mm 6 mps 744 mmHg 82%
    16:00 -4°C° 0 mm 5 mps 745 mmHg 80%
    17:00 -5°C° 0 mm 5 mps 745 mmHg 79%
    18:00 -5°C° 0 mm 5 mps 746 mmHg 79%
    19:00 -5°C° 0 mm 5 mps 747 mmHg 78%
    20:00 -5°C° 0 mm 5 mps 748 mmHg 79%
    21:00 -5°C° 0 mm 5 mps 748 mmHg 80%
    22:00 -5°C° 0 mm 5 mps 749 mmHg 81%
    23:00 -4°C° 0 mm 4 mps 749 mmHg 83%

    19 January, Saturday

    Time Temperature Precipitation Wind Pressure Humidity
    00:00 -4°C° 0 mm 4 mps 750 mmHg 85%
    01:00 -4°C° 0 mm 4 mps 750 mmHg 86%
    02:00 -4°C° 0 mm 4 mps 750 mmHg 87%
    03:00 -5°C° 0 mm 4 mps 750 mmHg 88%
    04:00 -5°C° 0 mm 4 mps 750 mmHg 89%
    05:00 -5°C° 0 mm 4 mps 750 mmHg 89%
    06:00 -5°C° 0 mm 3 mps 750 mmHg 89%
    07:00 -5°C° 0 mm 3 mps 750 mmHg 89%
    08:00 -5°C° 0 mm 3 mps 751 mmHg 88%
    09:00 -4°C° 0 mm 4 mps 751 mmHg 86%
    10:00 -4°C° 0 mm 4 mps 751 mmHg 85%
    11:00 -3°C° 0 mm 4 mps 751 mmHg 83%
    12:00 -3°C° 0 mm 4 mps 751 mmHg 81%
    13:00 -1°C° 0 mm 3 mps 751 mmHg 80%
    14:00 -2°C° 0 mm 3 mps 750 mmHg 81%
    15:00 -2°C° 0 mm 3 mps 750 mmHg 82%
    16:00 -3°C° 0 mm 2 mps 750 mmHg 84%
    17:00 -3°C° 0 mm 2 mps 750 mmHg 84%
    18:00 -3°C° 0 mm 2 mps 750 mmHg 84%
    19:00 -3°C° 0 mm 2 mps 750 mmHg 84%
    20:00 -3°C° 0 mm 2 mps 750 mmHg 83%
    21:00 -3°C° 0 mm 2 mps 750 mmHg 83%
    22:00 -2°C° 0 mm 1 mps 750 mmHg 83%
    23:00 -2°C° 0 mm 1 mps 750 mmHg 83%

    20 January, Sunday

    Time Temperature Precipitation Wind Pressure Humidity
    00:00 -2°C° 0 mm 1 mps 750 mmHg 83%
    01:00 -2°C° 0 mm 1 mps 750 mmHg 83%
    02:00 -2°C° 0 mm 1 mps 749 mmHg 82%
    03:00 -2°C° 0 mm 1 mps 749 mmHg 82%
    04:00 -2°C° 0 mm 1 mps 749 mmHg 81%
    05:00 -2°C° 0 mm 1 mps 749 mmHg 81%
    06:00 -2°C° 0 mm 1 mps 749 mmHg 81%
    07:00 -3°C° 0 mm 1 mps 748 mmHg 81%
    08:00 -2°C° 0 mm 1 mps 749 mmHg 80%
    09:00 -2°C° 0 mm 1 mps 749 mmHg 79%
    10:00 -2°C° 0 mm 1 mps 749 mmHg 79%
    11:00 -2°C° 0 mm 0 mps 749 mmHg 77%
    12:00 -2°C° 0 mm 0 mps 748 mmHg 75%
    13:00 -1°C° 0 mm 0 mps 748 mmHg 74%
    14:00 -2°C° 0 mm 0 mps 748 mmHg 77%
    15:00 -2°C° 0 mm 0 mps 748 mmHg 80%
    16:00 -2°C° 0 mm 1 mps 748 mmHg 83%
    17:00 -2°C° 0 mm 1 mps 748 mmHg 84%
    18:00 -2°C° 0 mm 1 mps 748 mmHg 84%
    19:00 -2°C° 0 mm 1 mps 748 mmHg 85%
    20:00 -4°C° 0 mm 2 mps 748 mmHg 86%
    21:00 -4°C° 0 mm 2 mps 749 mmHg 87%
    22:00 -5°C° 0 mm 2 mps 749 mmHg 88%
    23:00 -6°C° 0 mm 3 mps 748 mmHg 89%

    21 January, Monday

    Time Temperature Precipitation Wind Pressure Humidity
    00:00 -6°C° 0 mm 3 mps 748 mmHg 89%
    01:00 -7°C° 0 mm 4 mps 748 mmHg 90%
    02:00 -7°C° 0.1 mm 4 mps 748 mmHg 90%
    03:00 -6°C° 0.1 mm 5 mps 748 mmHg 91%
    04:00 -6°C° 0.1 mm 5 mps 748 mmHg 92%
    05:00 -6°C° 0 mm 5 mps 749 mmHg 90%
    06:00 -7°C° 0 mm 5 mps 749 mmHg 88%
    07:00 -7°C° 0 mm 4 mps 749 mmHg 86%
    08:00 -7°C° 0 mm 5 mps 750 mmHg 84%
    09:00 -6°C° 0 mm 5 mps 751 mmHg 82%
    10:00 -6°C° 0 mm 5 mps 751 mmHg 80%
    11:00 -6°C° 0 mm 5 mps 752 mmHg 76%
    12:00 -6°C° 0 mm 5 mps 752 mmHg 72%
    13:00 -5°C° 0 mm 5 mps 753 mmHg 68%
    14:00 -5°C° 0 mm 4 mps 753 mmHg 72%
    15:00 -5°C° 0 mm 3 mps 753 mmHg 75%
    16:00 -5°C° 0 mm 3 mps 754 mmHg 79%
    17:00 -5°C° 0 mm 2 mps 754 mmHg 81%
    18:00 -5°C° 0 mm 2 mps 754 mmHg 84%
    19:00 -5°C° 0 mm 2 mps 754 mmHg 86%
    20:00 -5°C° 0 mm 2 mps 754 mmHg 87%
    21:00 -5°C° 0 mm 2 mps 754 mmHg 88%
    22:00 -5°C° 0 mm 2 mps 754 mmHg 89%
    23:00 -5°C° 0 mm 2 mps 754 mmHg 89%
    Show more